Bowling Green, Kentucky, United States (42101)
Lat: 36.99N, Lon: 86.44W
Wx Zone: KYZ071
Local Info
Past Weather Observations for Thursday, May 21, 2015

NOTE: This archive is for the closest National Weather Service station to Bowling Green. Information may differ from the station used for current weather conditions.

Click here for Long-term Archive

Time Weather Temperature Dewpoint Humidity Pressure Winds Precip Visibility
23:50
Clear
Fog And Mist
43°F / 6°C 43°F / 6°C 100% 30.21 in
(1023 mb)
Calm - 2 1/2SM
23:30
Clear
Fog And Mist
43°F / 6°C 43°F / 6°C 100% 30.21 in
(1023 mb)
Calm - 3SM
23:10
Mostly Cloudy
Fog And Mist
45°F / 7°C 45°F / 7°C 100% 30.21 in
(1023 mb)
Calm - 3/4SM
22:50
Clear
Fog And Mist
45°F / 7°C 45°F / 7°C 100% 30.21 in
(1023 mb)
Calm - 4SM
22:30
Clear
Fog And Mist
46°F / 8°C 46°F / 8°C 100% 30.21 in
(1023 mb)
Calm - 4SM
22:10
Clear
Fog And Mist
46°F / 8°C 46°F / 8°C 100% 30.21 in
(1023 mb)
Calm - 4SM
21:50
Clear
Fog And Mist
46°F / 8°C 46°F / 8°C 100% 30.21 in
(1023 mb)
Calm - 3SM
21:30
Clear
Fog And Mist
46°F / 8°C 46°F / 8°C 100% 30.21 in
(1023 mb)
Calm - 5SM
21:10
Clear
Fog And Mist
46°F / 8°C 46°F / 8°C 100% 30.21 in
(1023 mb)
Calm - 5SM
20:50
Clear
46°F / 8°C 46°F / 8°C 100% 30.21 in
(1023 mb)
Calm - 7SM
20:30
Clear
48°F / 9°C 48°F / 9°C 100% 30.18 in
(1022 mb)
Calm - 7SM
20:10
Clear
48°F / 9°C 46°F / 8°C 94% 30.18 in
(1022 mb)
Calm - 7SM
19:50
Clear
50°F / 10°C 46°F / 8°C 88% 30.18 in
(1022 mb)
Calm - 10SM
19:30
Partly Cloudy
52°F / 11°C 46°F / 8°C 82% 30.18 in
(1022 mb)
Calm - 10SM
19:10
Mostly Cloudy
54°F / 12°C 46°F / 8°C 77% 30.18 in
(1022 mb)
Calm - 10SM
18:50
Overcast
54°F / 12°C 46°F / 8°C 77% 30.15 in
(1021 mb)
Calm - 10SM
18:30
Overcast
54°F / 12°C 46°F / 8°C 77% 30.15 in
(1021 mb)
Calm - 10SM
18:10
Overcast
55°F / 13°C 46°F / 8°C 72% 30.15 in
(1021 mb)
NW 4.6 mph
(NW 7 kph)
- 10SM
17:50
Overcast
55°F / 13°C 46°F / 8°C 72% 30.15 in
(1021 mb)
NW 4.6 mph
(NW 7 kph)
- 10SM
17:30
Mostly Cloudy
55°F / 13°C 45°F / 7°C 67% 30.15 in
(1021 mb)
NW 5.8 mph
(NW 9 kph)
- 10SM
17:10
Mostly Cloudy
55°F / 13°C 46°F / 8°C 72% 30.12 in
(1020 mb)
NNW 5.8 mph
(NNW 9 kph)
- 10SM
16:50
Overcast
55°F / 13°C 46°F / 8°C 72% 30.12 in
(1020 mb)
NW 8.1 mph
(NW 13 kph)
- 10SM
16:30
Overcast
55°F / 13°C 46°F / 8°C 72% 30.15 in
(1021 mb)
Calm - 10SM
16:10
Overcast
55°F / 13°C 46°F / 8°C 72% 30.12 in
(1020 mb)
NW 6.9 mph
(NW 11 kph)
- 10SM
15:50
Overcast
55°F / 13°C 46°F / 8°C 72% 30.12 in
(1020 mb)
NW 8.1 mph
(NW 13 kph)
- 10SM
15:30
Overcast
55°F / 13°C 48°F / 9°C 77% 30.12 in
(1020 mb)
NW 8.1 mph
(NW 13 kph)
- 10SM
15:10
Overcast
55°F / 13°C 46°F / 8°C 72% 30.12 in
(1020 mb)
NNW 5.8 mph
(NNW 9 kph)
- 10SM
14:50
Overcast
55°F / 13°C 46°F / 8°C 72% 30.12 in
(1020 mb)
NW 6.9 mph
(NW 11 kph)
- 10SM
14:30
Overcast
55°F / 13°C 46°F / 8°C 72% 30.12 in
(1020 mb)
NW 9.2 mph
(NW 15 kph)
- 10SM
14:10
Overcast
54°F / 12°C 46°F / 8°C 77% 30.12 in
(1020 mb)
NW 9.2 mph
(NW 15 kph)
- 10SM
13:50
Overcast
55°F / 13°C 46°F / 8°C 72% 30.12 in
(1020 mb)
NW 8.1 mph
(NW 13 kph)
- 10SM
13:30
Overcast
55°F / 13°C 46°F / 8°C 72% 30.12 in
(1020 mb)
WNW 8.1 mph
(WNW 13 kph)
- 10SM
13:10
Overcast
55°F / 13°C 48°F / 9°C 77% 30.15 in
(1021 mb)
NW 5.8 mph
(NW 9 kph)
- 10SM
12:50
Overcast
54°F / 12°C 46°F / 8°C 77% 30.12 in
(1020 mb)
WNW 5.8 mph
(WNW 9 kph)
- 7SM
12:30
Overcast
54°F / 12°C 48°F / 9°C 82% 30.12 in
(1020 mb)
NW 4.6 mph
(NW 7 kph)
- 10SM
12:10
Overcast
54°F / 12°C 48°F / 9°C 82% 30.12 in
(1020 mb)
WNW 6.9 mph
(WNW 11 kph)
- 10SM
11:50
Overcast
54°F / 12°C 48°F / 9°C 82% 30.12 in
(1020 mb)
WNW 6.9 mph
(WNW 11 kph)
- 10SM
11:30
Overcast
Fog And Mist
52°F / 11°C 48°F / 9°C 88% 30.12 in
(1020 mb)
NW 5.8 mph
(NW 9 kph)
- 5SM
11:10
Overcast
54°F / 12°C 48°F / 9°C 82% 30.12 in
(1020 mb)
W 8.1 mph
(W 13 kph)
- 7SM
10:50
Overcast
54°F / 12°C 46°F / 8°C 77% 30.12 in
(1020 mb)
NW 8.1 mph
(NW 13 kph)
- 10SM
10:30
Overcast
54°F / 12°C 46°F / 8°C 77% 30.12 in
(1020 mb)
WNW 5.8 mph
(WNW 9 kph)
- 7SM
10:10
Overcast
54°F / 12°C 46°F / 8°C 77% 30.12 in
(1020 mb)
NW 5.8 mph
(NW 9 kph)
- 10SM
09:50
Overcast
54°F / 12°C 48°F / 9°C 82% 30.09 in
(1019 mb)
NW 6.9 mph
(NW 11 kph)
- 7SM
09:30
Overcast
54°F / 12°C 48°F / 9°C 82% 30.09 in
(1019 mb)
WNW 4.6 mph
(WNW 7 kph)
- 10SM
09:10
Overcast
52°F / 11°C 48°F / 9°C 88% 30.09 in
(1019 mb)
NW 4.6 mph
(NW 7 kph)
- 7SM
08:50
Overcast
52°F / 11°C 48°F / 9°C 88% 30.09 in
(1019 mb)
W 6.9 mph
(W 11 kph)
- 7SM
08:30
Overcast
Fog And Mist
52°F / 11°C 48°F / 9°C 88% 30.09 in
(1019 mb)
NW 5.8 mph
(NW 9 kph)
- 5SM
08:10
Overcast
Fog And Mist
52°F / 11°C 50°F / 10°C 94% 30.09 in
(1019 mb)
NW 4.6 mph
(NW 7 kph)
- 3SM
07:50
Overcast
Fog And Mist
52°F / 11°C 50°F / 10°C 94% 30.09 in
(1019 mb)
NW 4.6 mph
(NW 7 kph)
- 4SM
07:30
Overcast
Fog And Mist
52°F / 11°C 50°F / 10°C 94% 30.09 in
(1019 mb)
NW 6.9 mph
(NW 11 kph)
- 4SM
07:10
Overcast
Fog And Mist
52°F / 11°C 48°F / 9°C 88% 30.09 in
(1019 mb)
NW 5.8 mph
(NW 9 kph)
- 5SM
06:50
Overcast
Fog And Mist
50°F / 10°C 50°F / 10°C 100% 30.09 in
(1019 mb)
NW 6.9 mph
(NW 11 kph)
- 3SM
06:30
Overcast
Fog And Mist
52°F / 11°C 52°F / 11°C 100% 30.09 in
(1019 mb)
NW 5.8 mph
(NW 9 kph)
- 3SM
06:10
Overcast
Fog And Mist
52°F / 11°C 52°F / 11°C 100% 30.06 in
(1018 mb)
NW 3.5 mph
(NW 6 kph)
- 3SM
05:50
Overcast
Fog And Mist
52°F / 11°C 52°F / 11°C 100% 30.06 in
(1018 mb)
NW 4.6 mph
(NW 7 kph)
- 3SM
05:30
Overcast
Fog And Mist
52°F / 11°C 52°F / 11°C 100% 30.06 in
(1018 mb)
NW 5.8 mph
(NW 9 kph)
- 5SM
05:15
Overcast
Fog And Mist
52°F / 11°C 52°F / 11°C 100% 30.06 in
(1018 mb)
NW 4.6 mph
(NW 7 kph)
- 5SM
04:50
Overcast
52°F / 11°C 52°F / 11°C 100% 30.04 in
(1017 mb)
NW 4.6 mph
(NW 7 kph)
- 7SM
04:30
Overcast
52°F / 11°C 50°F / 10°C 94% 30.04 in
(1017 mb)
NW 4.6 mph
(NW 7 kph)
- 7SM
04:10
Overcast
52°F / 11°C 50°F / 10°C 94% 30.04 in
(1017 mb)
NW 4.6 mph
(NW 7 kph)
- 7SM
03:50
Overcast
Fog And Mist
52°F / 11°C 52°F / 11°C 100% 30.04 in
(1017 mb)
NNW 4.6 mph
(NNW 7 kph)
- 5SM
03:30
Overcast
Drizzle
52°F / 11°C 52°F / 11°C 100% 30.01 in
(1016 mb)
NW 6.9 mph
(NW 11 kph)
- 4SM
03:10
Overcast
Drizzle
54°F / 12°C 54°F / 12°C 100% 30.01 in
(1016 mb)
NW 3.5 mph
(NW 6 kph)
- 4SM
02:55
Overcast
Drizzle
54°F / 12°C 54°F / 12°C 100% 30.01 in
(1016 mb)
NNW 4.6 mph
(NNW 7 kph)
- 4SM
02:30
Overcast
Fog And Mist
54°F / 12°C 54°F / 12°C 100% 30.01 in
(1016 mb)
NW 5.8 mph
(NW 9 kph)
- 4SM
02:10
Overcast
Fog And Mist
54°F / 12°C 54°F / 12°C 100% 29.98 in
(1015 mb)
NW 5.8 mph
(NW 9 kph)
- 5SM
01:50
Overcast
Fog And Mist
55°F / 13°C 55°F / 13°C 100% 29.98 in
(1015 mb)
NNW 5.8 mph
(NNW 9 kph)
0.01 in
(0.25 mm)
5SM
01:30
Overcast
55°F / 13°C 55°F / 13°C 100% 29.98 in
(1015 mb)
Calm 0.01 in
(0.25 mm)
7SM
01:10
Overcast
55°F / 13°C 55°F / 13°C 100% 29.98 in
(1015 mb)
NNW 5.8 mph
(NNW 9 kph)
0.01 in
(0.25 mm)
7SM
00:50
Overcast
Drizzle
55°F / 13°C 55°F / 13°C 100% 29.98 in
(1015 mb)
NNW 6.9 mph
(NNW 11 kph)
- 4SM
00:30
Overcast
Drizzle
57°F / 14°C 57°F / 14°C 100% 29.98 in
(1015 mb)
NNW 4.6 mph
(NNW 7 kph)
- 4SM
00:10
Overcast
57°F / 14°C 57°F / 14°C 100% 29.98 in
(1015 mb)
NNW 3.5 mph
(NNW 6 kph)
- 10SM
Time Weather Temperature Dewpoint Humidity Pressure Winds Precip Visibility


Weather for websites

WeatherForYou.com, LLC is not responsible for any damages or problems caused by this service. Current weather conditions are obtained from the closest station including government and personal stations which may have varying degrees of accuracy. Weather forecasts are derived from the NOAA NDFD. Like all things, this site belongs to Jesus Christ... He just trusts us to maintain it. If you have any questions or comments email webmaster@weatherforyou.com

Copyright © 2015, WeatherForYou.com LLC. All rights reserved.